Flag for Rwanda Weather past 2 weeks in Kigali, Rwanda

70 °F

Partly sunny.

Feels Like: 70 °F
Forecast: 60 / 74 °F
Wind: 9 mph from Southwest

Location: Kigali Airport

Current Time: Nov 29, 2015 at 4:44:27 PM

Latest Report: Nov 29, 2015 at 4:00 PM

Visibility: N/A

Pressure: 30.09 "Hg (25.12 "Hg at 1555m altitude)

Humidity: 94%

Dew point: 68 °F

Location of KigaliLocation

Historic Weather in Kigali — Graph


Kigali temperature yesterday

Maximum temperature yesterday: 81 °F (at 3:00 PM)
Minimum temperature yesterday: 61 °F (at 5:00 AM)
Average temperature yesterday: 69 °F

Past Weeks' High & Low Weather Summary

High86 °F (Nov 25, 2:00 PM)100% (Nov 15, 3:00 AM)30.24 "Hg (Nov 15, 3:00 AM)
Low61 °F (Nov 16, 2:00 AM)46% (Nov 25, 2:00 PM)29.95 "Hg (Nov 14, 4:30 PM)
Average69 °F87%30.09 "Hg
* Reported Nov 14 3:00 PM — Nov 29 3:30 PM, Kigali, Weather by CustomWeather, © 2015

Note: Actual official high and low records may vary slightly from our data, if they occured in-between our weather recording intervals... More about our weather records


Kigali weather history for previous 24 hours

Time TempWeatherWind HumidityBarometerVisibility
3:30 PM
Sun, Nov 29
77 °FRain. Partly sunny.16 mph69%30.09 "Hg5 mi
3:00 PM77 °FPartly sunny.9 mph65%30.09 "HgN/A
2:30 PM81 °FPartly sunny.9 mph54%30.09 "HgN/A
2:00 PM81 °FPartly sunny.9 mph62%30.09 "HgN/A
1:30 PM81 °FPartly sunny.9 mph58%30.12 "HgN/A
1:00 PM81 °FBroken clouds.5 mph66%30.15 "HgN/A
12:30 PM77 °FBroken clouds.No wind65%30.15 "HgN/A
11:30 AM75 °FPartly sunny.No wind74%30.18 "HgN/A
11:00 AM73 °FPartly sunny.No wind83%30.21 "HgN/A
10:30 AM73 °FPartly sunny.3 mph83%30.21 "HgN/A
10:00 AM73 °FPartly sunny.No wind83%30.21 "HgN/A
9:00 AM73 °FScattered clouds.No wind78%30.21 "Hg5 mi
8:30 AM72 °FPassing clouds.3 mph83%30.21 "HgN/A
7:00 AM63 °FPassing clouds.No wind100%30.18 "HgN/A
6:00 AM61 °FPassing clouds.3 mph100%30.15 "HgN/A
5:30 AM61 °FPassing clouds.3 mph100%30.15 "HgN/A
5:00 AM61 °FPassing clouds.6 mph100%30.15 "HgN/A
4:30 AM61 °FPassing clouds.6 mph100%30.12 "HgN/A
4:00 AM61 °FPassing clouds.7 mph100%30.12 "HgN/A
3:30 AM61 °FPassing clouds.3 mph100%30.12 "HgN/A
3:00 AM63 °FPassing clouds.3 mph100%30.12 "HgN/A
2:00 AM63 °FPassing clouds.3 mph100%30.15 "HgN/A
1:30 AM64 °FPassing clouds.3 mph100%30.15 "HgN/A
1:00 AM64 °FPassing clouds.3 mph100%30.15 "HgN/A
12:00 AM66 °FPassing clouds.3 mph94%30.15 "HgN/A
11:30 PM
Sat, Nov 28
66 °FPassing clouds.No wind94%30.15 "HgN/A
11:00 PM66 °FPassing clouds.No wind94%30.18 "HgN/A
9:30 PM68 °FPassing clouds.No wind88%30.15 "HgN/A
9:00 PM68 °FPassing clouds.3 mph88%30.15 "HgN/A
8:30 PM68 °FPassing clouds.3 mph88%30.15 "HgN/A
8:00 PM70 °FPassing clouds.3 mph83%30.12 "HgN/A
7:30 PM72 °FPassing clouds.3 mph73%30.12 "HgN/A
7:00 PM72 °FPassing clouds.3 mph73%30.12 "HgN/A
6:30 PM73 °FPassing clouds.No wind69%30.09 "HgN/A
6:00 PM73 °FPassing clouds.5 mph69%30.07 "HgN/A
5:30 PM77 °FScattered clouds.7 mph61%30.07 "HgN/A
5:00 PM79 °FScattered clouds.6 mph61%30.07 "HgN/A
4:30 PM77 °FScattered clouds.3 mph61%30.07 "HgN/A
4:00 PM79 °FScattered clouds.5 mph61%30.07 "HgN/A
Weather by CustomWeather, © 2015

See weather overviewHow to use our weather pages